ATLAS 5 CENTAUR DEB, 43995

Orbit data source: Space-Track

ATLAS 5 CENTAUR DEB, 43995 is space debris in HEO originally from a launch on Wed, 17 Sep 2014 UTC launched from the Air Force Eastern Test Range (AFETR). Debris objects in space refer to the collection of defunct objects orbiting the Earth. Examples of debris include non-operational satellites, rocket bodies, and fragments generated from explosions, collisions, or faulty payload assembly.

Loading next visibility...
ATLAS 5 CENTAUR DEB details
Identifier
43995, 2014-055BA
Orbit
HEO
Last TLE update22 hours ago
Origin
Flag of USULA (US)
ManufacturerUnknown
MissionSpacecraft
Bus & MotorUnknown
MassUnknown
Launch date (UTC)
2014-09-17 (10 years ago)
Launch vehicleUnknown
Launch site
Air Force Eastern Test Range (AFETR)
Object type
Payload
Rocket body
Debris
Shape & HBRUnknown
Radar Cross SectionSmall (<0.1 m²)

Expand to show TLE details & history

TLE from 22 hours ago
0 ATLAS 5 CENTAUR DEB
1 43995U 14055BA  24336.56274979  .00000006  00000-0  00000-0 0  9998
2 43995  19.8096 191.4585 4941245  86.0172 326.8446  1.89001543 42438
Epoch: 2024-12-01T13:30Z
Definitive object data (Epoch: 2024-12-01T13:30:21.581Z)
Latitude
Longitude-81.92549°
Altitude13,767.643 km
Speed5.015 km/s
True Right ascension12h 46m 15s
True Declination0° 00' 00"
Sunlit
Object was in daylight at TLE epoch
Visualization TLE readout
Latitude-18.32774°
Longitude-148.84374°
Altitude31,220.836 km
Speed2.604 km/s
Apparent Right ascension08h 05m 40s
Apparent Declination-26° 59' 57"
Sunlit
Object is in daylight
Visualization observer readout
Local Sidereal Time09:42:32
Azimuth202.798° SW
Elevation19.387°
Doppler factor1
Orbital elements
Apogee altitude34,911.736 km
Perigee altitude7,601.645 km
Semi-major axis27,634.828 km
Eccentricity0.4941245
Inclination19.8096°
RAAN191.4585°
Arg. of periapsis86.0172°
True anomaly274.1274°
Mean anomaly326.8446°
Eccentric anomaly303.138°
Mean motion0.47245 °/min
BSTARUnknown
Orbital period761.98 mins
Loading maneuver chart data...

ATLAS 5 CENTAUR DEB Visibility forecast

Observer location: undefined°, undefined

Span
Click to sort rows by Start time (UTC) header in descending order
Start Az.
Max El. time (UTC)
Max El. Az.
Max El.
End time (UTC)
End Az.
240 mins2024-12-02 11:55:44.277Z202.791° SW2024-12-02 15:13:44.277Z158.175° S31.302°2024-12-02 15:55:44.277Z95.775° ESE
363 mins2024-12-03 05:52:44.277Z248.091° W2024-12-03 07:14:44.277Z219.232° SW17.988°2024-12-03 11:55:44.277Z219.753° SW
|